AJT1948 KATL-MDPC

Flight info

Callsign AJT1948
Flight time 2h 51m
Altitude 35000
Route VRSTY3 NOKIE DCT YANTI Q89 MANLE Y185 VENDS Y306 HAGIT DCT POKEG POKEG2B
Aircraft B722/M-SDFGHRWY/C

Departure

Time 2026-05-07 16:18
Airport Hartsfield Jackson Atlanta International Airport (KATL)

Arrival

Time 2026-05-07 19:09
Airport Punta Cana International Airport (MDPC)
Time Latitude Longitude Altitude Speed Heading
2026-05-07 15:54 33.65382 -84.41882 984 ft 0 kts 297°
2026-05-07 16:08 33.65375 -84.41867 983 ft 2 kts 311°
2026-05-07 16:08 33.65365 -84.41856 983 ft 2 kts 324°
2026-05-07 16:08 33.65352 -84.41846 983 ft 2 kts 338°
2026-05-07 16:09 33.65338 -84.41841 983 ft 2 kts 352°
2026-05-07 16:09 33.65324 -84.41840 983 ft 2 kts
2026-05-07 16:09 33.65309 -84.41844 983 ft 2 kts 19°
2026-05-07 16:09 33.65299 -84.41849 983 ft 0 kts 28°
2026-05-07 16:10 33.65295 -84.41853 983 ft 0 kts 31°
2026-05-07 16:12 33.65311 -84.41840 983 ft 8 kts 31°
2026-05-07 16:12 33.65390 -84.41787 983 ft 14 kts 32°
2026-05-07 16:12 33.65415 -84.41684 983 ft 16 kts 124°
2026-05-07 16:13 33.65347 -84.41556 985 ft 18 kts 123°
2026-05-07 16:13 33.65279 -84.41431 986 ft 18 kts 124°
2026-05-07 16:13 33.65211 -84.41360 986 ft 12 kts 171°
2026-05-07 16:13 33.65132 -84.41321 986 ft 13 kts 119°
2026-05-07 16:14 33.65120 -84.41198 989 ft 18 kts 90°
2026-05-07 16:14 33.65120 -84.41045 992 ft 17 kts 91°
2026-05-07 16:14 33.65047 -84.40963 993 ft 16 kts 180°
2026-05-07 16:14 33.64912 -84.40962 991 ft 18 kts 178°
2026-05-07 16:15 33.64846 -84.40862 990 ft 17 kts 89°
2026-05-07 16:15 33.64846 -84.40700 987 ft 19 kts 90°
2026-05-07 16:15 33.64832 -84.40593 985 ft 11 kts 133°
2026-05-07 16:15 33.64782 -84.40569 984 ft 10 kts 176°
2026-05-07 16:16 33.64702 -84.40565 982 ft 8 kts 184°
2026-05-07 16:16 33.64679 -84.40612 982 ft 5 kts 271°
2026-05-07 16:16 33.64679 -84.40653 983 ft 4 kts 269°
2026-05-07 16:16 33.64679 -84.40685 983 ft 3 kts 269°
2026-05-07 16:17 33.64679 -84.40712 984 ft 6 kts 271°
2026-05-07 16:17 33.64679 -84.40962 986 ft 62 kts 270°
2026-05-07 16:17 33.64680 -84.41762 977 ft 128 kts 269°
2026-05-07 16:17 33.64681 -84.42914 1319 ft 138 kts 268°
2026-05-07 16:18 33.64652 -84.44101 1632 ft 153 kts 263°
2026-05-07 16:18 33.64643 -84.45394 2256 ft 152 kts 264°
2026-05-07 16:18 33.64666 -84.46558 3068 ft 138 kts 283°
2026-05-07 16:18 33.64834 -84.47576 3596 ft 137 kts 278°
2026-05-07 16:19 33.65073 -84.48777 3799 ft 163 kts 280°
2026-05-07 16:19 33.65338 -84.50249 3914 ft 200 kts 281°
2026-05-07 16:19 33.65667 -84.52004 4169 ft 237 kts 280°
2026-05-07 16:19 33.66063 -84.54105 4439 ft 278 kts 284°
2026-05-07 16:20 33.66470 -84.56424 5447 ft 288 kts 279°
2026-05-07 16:20 33.66432 -84.58727 6841 ft 281 kts 256°
2026-05-07 16:20 33.65723 -84.60856 8043 ft 281 kts 247°
2026-05-07 16:20 33.64722 -84.62892 9074 ft 286 kts 243°
2026-05-07 16:21 33.63628 -84.64828 10069 ft 292 kts 231°
2026-05-07 16:21 33.62055 -84.66393 11050 ft 300 kts 219°
2026-05-07 16:21 33.60243 -84.67734 11883 ft 309 kts 215°
2026-05-07 16:21 33.58328 -84.68877 12666 ft 320 kts 201°
2026-05-07 16:22 33.56061 -84.69079 13399 ft 337 kts 173°
2026-05-07 16:22 33.53834 -84.68102 13998 ft 353 kts 149°
2026-05-07 16:22 33.51786 -84.66271 14113 ft 381 kts 139°
2026-05-07 16:22 33.49858 -84.64027 14589 ft 395 kts 133°
2026-05-07 16:23 33.47977 -84.61623 15206 ft 405 kts 132°
2026-05-07 16:23 33.46014 -84.59111 15844 ft 415 kts 132°
2026-05-07 16:23 33.44037 -84.56625 16508 ft 422 kts 133°
2026-05-07 16:23 33.41976 -84.54071 17220 ft 427 kts 133°
2026-05-07 16:24 33.39922 -84.51530 17930 ft 431 kts 133°
2026-05-07 16:24 33.37820 -84.48930 18610 ft 436 kts 132°
2026-05-07 16:24 33.35726 -84.46338 19234 ft 441 kts 132°
2026-05-07 16:24 33.33591 -84.43691 19837 ft 446 kts 132°
2026-05-07 16:25 33.31425 -84.41010 20437 ft 450 kts 132°
2026-05-07 16:25 33.29268 -84.38342 21004 ft 454 kts 131°
2026-05-07 16:25 33.27049 -84.35596 21557 ft 459 kts 131°
2026-05-07 16:25 33.24842 -84.32861 22087 ft 463 kts 132°
2026-05-07 16:26 33.22612 -84.30101 22595 ft 467 kts 132°
2026-05-07 16:26 33.20320 -84.27278 23095 ft 471 kts 132°
2026-05-07 16:26 33.18037 -84.24464 23575 ft 475 kts 132°
2026-05-07 16:26 33.15745 -84.21645 24049 ft 478 kts 131°
2026-05-07 16:27 33.13440 -84.18813 24478 ft 482 kts 131°
2026-05-07 16:27 33.11088 -84.15921 24931 ft 485 kts 131°
2026-05-07 16:27 33.08741 -84.13040 25364 ft 489 kts 131°
2026-05-07 16:27 33.06383 -84.10148 25770 ft 492 kts 131°
2026-05-07 16:28 33.03982 -84.07199 26165 ft 495 kts 131°
2026-05-07 16:28 33.01606 -84.04282 26536 ft 499 kts 131°
2026-05-07 16:28 32.99179 -84.01302 26915 ft 501 kts 131°
2026-05-07 16:28 32.96764 -83.98345 27283 ft 504 kts 131°
2026-05-07 16:29 32.94292 -83.95319 27655 ft 507 kts 130°
2026-05-07 16:29 32.91845 -83.92329 28016 ft 509 kts 130°
2026-05-07 16:29 32.89374 -83.89318 28322 ft 513 kts 130°
2026-05-07 16:29 32.86875 -83.86267 28641 ft 515 kts 130°
2026-05-07 16:30 32.84381 -83.83231 28931 ft 518 kts 130°
2026-05-07 16:30 32.81885 -83.80192 29238 ft 520 kts 130°
2026-05-07 16:30 32.79332 -83.77085 29521 ft 522 kts 130°
2026-05-07 16:30 32.76805 -83.74010 29807 ft 524 kts 130°
2026-05-07 16:31 32.74274 -83.70940 30072 ft 526 kts 130°
2026-05-07 16:31 32.71697 -83.67816 30350 ft 528 kts 130°
2026-05-07 16:31 32.69080 -83.64770 30601 ft 532 kts 133°
2026-05-07 16:31 32.66283 -83.61871 30836 ft 536 kts 136°
2026-05-07 16:32 32.63391 -83.59161 31105 ft 539 kts 139°
2026-05-07 16:32 32.60378 -83.56534 31417 ft 540 kts 141°
2026-05-07 16:32 32.57293 -83.53939 31738 ft 540 kts 141°
2026-05-07 16:32 32.54225 -83.51394 32033 ft 540 kts 141°
2026-05-07 16:33 32.51188 -83.48859 32335 ft 539 kts 141°
2026-05-07 16:33 32.48136 -83.46268 32629 ft 539 kts 140°
2026-05-07 16:33 32.45147 -83.43696 32935 ft 538 kts 140°
2026-05-07 16:33 32.42132 -83.41071 33272 ft 536 kts 139°
2026-05-07 16:34 32.39173 -83.38471 33572 ft 535 kts 139°
2026-05-07 16:34 32.36202 -83.35839 33842 ft 534 kts 139°
2026-05-07 16:34 32.33237 -83.33205 34112 ft 534 kts 139°
2026-05-07 16:34 32.30281 -83.30582 34382 ft 533 kts 139°
2026-05-07 16:35 32.27323 -83.27966 34652 ft 532 kts 139°
2026-05-07 16:35 32.24342 -83.25339 34782 ft 534 kts 139°
2026-05-07 16:35 32.21351 -83.22710 34825 ft 538 kts 139°
2026-05-07 16:36 32.15307 -83.17419 34842 ft 548 kts 140°
2026-05-07 16:36 32.09155 -83.12050 34836 ft 556 kts 140°
2026-05-07 16:36 32.06113 -83.09409 34820 ft 543 kts 140°
2026-05-07 16:37 32.03056 -83.06770 34825 ft 539 kts 140°
2026-05-07 16:37 31.97001 -83.01543 34834 ft 545 kts 140°
2026-05-07 16:38 31.90892 -82.96235 34834 ft 551 kts 140°
2026-05-07 16:38 31.84742 -82.90901 34829 ft 555 kts 140°
2026-05-07 16:39 31.78535 -82.85491 34831 ft 555 kts 139°
2026-05-07 16:39 31.72505 -82.79903 34830 ft 552 kts 136°
2026-05-07 16:40 31.66589 -82.74229 34831 ft 551 kts 136°
2026-05-07 16:40 31.60666 -82.68529 34831 ft 551 kts 136°
2026-05-07 16:41 31.54737 -82.62888 34831 ft 551 kts 136°
2026-05-07 16:41 31.48802 -82.57287 34831 ft 551 kts 136°
2026-05-07 16:42 31.42872 -82.51699 34831 ft 551 kts 136°
2026-05-07 16:42 31.36891 -82.46077 34831 ft 551 kts 137°
2026-05-07 16:43 31.30935 -82.40482 34831 ft 551 kts 136°
2026-05-07 16:43 31.24957 -82.34878 34831 ft 552 kts 137°
2026-05-07 16:44 31.19008 -82.29291 34830 ft 552 kts 137°
2026-05-07 16:44 31.13055 -82.23724 34832 ft 552 kts 137°
2026-05-07 16:45 31.07072 -82.18150 34831 ft 553 kts 137°
2026-05-07 16:45 31.01082 -82.12565 34832 ft 553 kts 137°
2026-05-07 16:46 30.95078 -82.06982 34831 ft 553 kts 137°
2026-05-07 16:46 30.89096 -82.01422 34827 ft 553 kts 137°
2026-05-07 16:47 30.83077 -81.95832 34828 ft 552 kts 137°
2026-05-07 16:47 30.77098 -81.90297 34830 ft 551 kts 137°
2026-05-07 16:48 30.71159 -81.84804 34830 ft 550 kts 137°
2026-05-07 16:48 30.65166 -81.79271 34831 ft 550 kts 137°
2026-05-07 16:49 30.59095 -81.73909 34831 ft 552 kts 140°
2026-05-07 16:49 30.52837 -81.68844 34831 ft 553 kts 142°
2026-05-07 16:50 30.46482 -81.63847 34831 ft 554 kts 142°
2026-05-07 16:50 30.40129 -81.58810 34831 ft 555 kts 141°
2026-05-07 16:51 30.33811 -81.53749 34832 ft 555 kts 141°
2026-05-07 16:51 30.27505 -81.48673 34831 ft 556 kts 141°
2026-05-07 16:52 30.21186 -81.43587 34831 ft 555 kts 141°
2026-05-07 16:52 30.14841 -81.38509 34830 ft 555 kts 141°
2026-05-07 16:53 30.08542 -81.33479 34831 ft 554 kts 142°
2026-05-07 16:53 30.02195 -81.28425 34830 ft 554 kts 142°
2026-05-07 16:54 29.95894 -81.23412 34831 ft 553 kts 142°
2026-05-07 16:54 29.89578 -81.18397 34829 ft 553 kts 142°
2026-05-07 16:55 29.83246 -81.13399 34828 ft 553 kts 144°
2026-05-07 16:55 29.76518 -81.09166 34831 ft 557 kts 154°
2026-05-07 16:56 29.69333 -81.05840 34833 ft 560 kts 159°
2026-05-07 16:56 29.58384 -81.01224 34832 ft 562 kts 158°
2026-05-07 16:57 29.51133 -80.97930 34830 ft 562 kts 156°
2026-05-07 16:57 29.43943 -80.94513 34830 ft 560 kts 155°
2026-05-07 16:58 29.36809 -80.91094 34831 ft 559 kts 155°
2026-05-07 16:58 29.29643 -80.87685 34830 ft 558 kts 156°
2026-05-07 16:59 29.22477 -80.84309 34830 ft 558 kts 156°
2026-05-07 16:59 29.15316 -80.80962 34831 ft 557 kts 156°
2026-05-07 17:00 29.08179 -80.77626 34831 ft 558 kts 156°
2026-05-07 17:00 29.01000 -80.74269 34832 ft 559 kts 156°
2026-05-07 17:01 28.93859 -80.70950 34831 ft 560 kts 156°
2026-05-07 17:01 28.86729 -80.67451 34826 ft 551 kts 142°
2026-05-07 17:02 28.83902 -80.64619 34829 ft 540 kts 125°
2026-05-07 17:02 28.81715 -80.61235 34832 ft 533 kts 116°
2026-05-07 17:02 28.77900 -80.53973 34833 ft 534 kts 112°
2026-05-07 17:03 28.74187 -80.46634 34830 ft 537 kts 114°
2026-05-07 17:03 28.70254 -80.39458 34830 ft 538 kts 116°
2026-05-07 17:04 28.66065 -80.32390 34829 ft 537 kts 118°
2026-05-07 17:04 28.61854 -80.25465 34830 ft 535 kts 118°
2026-05-07 17:05 28.57663 -80.18531 34831 ft 534 kts 118°
2026-05-07 17:05 28.53489 -80.11556 34832 ft 536 kts 118°
2026-05-07 17:06 28.49299 -80.04533 34831 ft 538 kts 118°
2026-05-07 17:06 28.45092 -79.97485 34831 ft 539 kts 118°
2026-05-07 17:07 28.40892 -79.90477 34831 ft 540 kts 118°
2026-05-07 17:07 28.36675 -79.83457 34832 ft 540 kts 118°
2026-05-07 17:08 28.32465 -79.76463 34830 ft 538 kts 118°
2026-05-07 17:08 28.28249 -79.69460 34831 ft 537 kts 118°
2026-05-07 17:09 28.24036 -79.62477 34830 ft 536 kts 117°
2026-05-07 17:09 28.19864 -79.55553 34831 ft 535 kts 118°
2026-05-07 17:10 28.15653 -79.48578 34831 ft 535 kts 118°
2026-05-07 17:10 28.11450 -79.41635 34831 ft 536 kts 118°
2026-05-07 17:11 28.07259 -79.34720 34830 ft 537 kts 118°
2026-05-07 17:11 28.03046 -79.27780 34831 ft 538 kts 118°
2026-05-07 17:12 27.98784 -79.20785 34831 ft 539 kts 118°
2026-05-07 17:12 27.94545 -79.13823 34831 ft 540 kts 118°
2026-05-07 17:13 27.90291 -79.06851 34832 ft 541 kts 118°
2026-05-07 17:13 27.86040 -78.99910 34827 ft 538 kts 118°
2026-05-07 17:14 27.81798 -78.92992 34830 ft 536 kts 118°
2026-05-07 17:14 27.77576 -78.86098 34831 ft 536 kts 118°
2026-05-07 17:15 27.73349 -78.79197 34832 ft 537 kts 118°
2026-05-07 17:15 27.69087 -78.72272 34832 ft 539 kts 118°
2026-05-07 17:16 27.64827 -78.65351 34831 ft 540 kts 118°
2026-05-07 17:16 27.60660 -78.58355 34831 ft 539 kts 117°
2026-05-07 17:17 27.56562 -78.51311 34831 ft 538 kts 116°
2026-05-07 17:17 27.52481 -78.44283 34829 ft 537 kts 116°
2026-05-07 17:18 27.48399 -78.37271 34830 ft 535 kts 117°
2026-05-07 17:18 27.44316 -78.30299 34830 ft 536 kts 117°
2026-05-07 17:19 27.40204 -78.23312 34831 ft 536 kts 117°
2026-05-07 17:19 27.36088 -78.16335 34832 ft 537 kts 117°
2026-05-07 17:20 27.31709 -78.09567 34831 ft 543 kts 123°
2026-05-07 17:20 27.26728 -78.03107 34831 ft 547 kts 127°
2026-05-07 17:21 27.21586 -77.96886 34832 ft 548 kts 128°
2026-05-07 17:21 27.16454 -77.90608 34831 ft 548 kts 127°
2026-05-07 17:22 27.11372 -77.84229 34830 ft 547 kts 126°
2026-05-07 17:22 27.06367 -77.77866 34831 ft 546 kts 126°
2026-05-07 17:23 27.01359 -77.71502 34830 ft 546 kts 126°
2026-05-07 17:23 26.96335 -77.65142 34831 ft 546 kts 126°
2026-05-07 17:24 26.91306 -77.58794 34831 ft 545 kts 126°
2026-05-07 17:24 26.86284 -77.52476 34827 ft 544 kts 126°
2026-05-07 17:25 26.81277 -77.46191 34831 ft 543 kts 126°
2026-05-07 17:25 26.76267 -77.39917 34831 ft 543 kts 126°
2026-05-07 17:26 26.71236 -77.33608 34830 ft 544 kts 127°
2026-05-07 17:26 26.66217 -77.27309 34832 ft 546 kts 127°
2026-05-07 17:27 26.61169 -77.21019 34831 ft 547 kts 127°
2026-05-07 17:27 26.56107 -77.14719 34831 ft 548 kts 127°
2026-05-07 17:28 26.51005 -77.08360 34831 ft 548 kts 127°
2026-05-07 17:28 26.45954 -77.02085 34830 ft 547 kts 127°
2026-05-07 17:29 26.40871 -76.95782 34830 ft 546 kts 127°
2026-05-07 17:29 26.35812 -76.89516 34831 ft 546 kts 127°
2026-05-07 17:30 26.30747 -76.83252 34830 ft 545 kts 127°
2026-05-07 17:30 26.25712 -76.77022 34830 ft 545 kts 127°
2026-05-07 17:31 26.20658 -76.70777 34832 ft 544 kts 127°
2026-05-07 17:31 26.15601 -76.64539 34831 ft 545 kts 127°
2026-05-07 17:32 26.10520 -76.58289 34832 ft 545 kts 127°
2026-05-07 17:32 26.05453 -76.52063 34831 ft 545 kts 127°
2026-05-07 17:33 26.00384 -76.45847 34831 ft 545 kts 127°
2026-05-07 17:33 25.95281 -76.39593 34830 ft 546 kts 127°
2026-05-07 17:34 25.90196 -76.33366 34830 ft 546 kts 127°
2026-05-07 17:34 25.85127 -76.27174 34827 ft 545 kts 127°
2026-05-07 17:35 25.80039 -76.20966 34830 ft 544 kts 127°
2026-05-07 17:35 25.74953 -76.14761 34831 ft 545 kts 127°
2026-05-07 17:36 25.69861 -76.08562 34832 ft 547 kts 127°
2026-05-07 17:36 25.64766 -76.02380 34831 ft 548 kts 127°
2026-05-07 17:37 25.59619 -75.96136 34831 ft 549 kts 127°
2026-05-07 17:37 25.54493 -75.89919 34831 ft 548 kts 127°
2026-05-07 17:38 25.49353 -75.83701 34830 ft 547 kts 127°
2026-05-07 17:38 25.44238 -75.77510 34831 ft 547 kts 127°
2026-05-07 17:39 25.39150 -75.71372 34831 ft 546 kts 127°
2026-05-07 17:39 25.34034 -75.65198 34831 ft 546 kts 127°
2026-05-07 17:40 25.28896 -75.59020 34831 ft 545 kts 127°
2026-05-07 17:40 25.23801 -75.52888 34831 ft 546 kts 127°
2026-05-07 17:41 25.18652 -75.46711 34831 ft 547 kts 127°
2026-05-07 17:41 25.13534 -75.40585 34831 ft 547 kts 127°
2026-05-07 17:42 25.08398 -75.34422 34831 ft 548 kts 128°
2026-05-07 17:42 25.03246 -75.28256 34831 ft 549 kts 128°
2026-05-07 17:43 24.98079 -75.22091 34832 ft 549 kts 128°
2026-05-07 17:43 24.92921 -75.15944 34830 ft 548 kts 128°
2026-05-07 17:44 24.87751 -75.09789 34826 ft 546 kts 128°
2026-05-07 17:44 24.82623 -75.03690 34829 ft 545 kts 128°
2026-05-07 17:45 24.77475 -74.97570 34832 ft 546 kts 128°
2026-05-07 17:45 24.72341 -74.91473 34831 ft 547 kts 128°
2026-05-07 17:46 24.67183 -74.85357 34831 ft 548 kts 128°
2026-05-07 17:46 24.61984 -74.79214 34832 ft 549 kts 128°
2026-05-07 17:47 24.56799 -74.73092 34831 ft 550 kts 128°
2026-05-07 17:47 24.51603 -74.66945 34832 ft 550 kts 128°
2026-05-07 17:48 24.46410 -74.60841 34830 ft 549 kts 128°
2026-05-07 17:48 24.41247 -74.54765 34830 ft 549 kts 128°
2026-05-07 17:49 24.36060 -74.48665 34831 ft 548 kts 128°
2026-05-07 17:49 24.30873 -74.42573 34830 ft 548 kts 128°
2026-05-07 17:50 24.25694 -74.36485 34831 ft 548 kts 128°
2026-05-07 17:50 24.20501 -74.30403 34830 ft 548 kts 128°
2026-05-07 17:51 24.15287 -74.24319 34830 ft 547 kts 128°
2026-05-07 17:51 24.10090 -74.18245 34832 ft 548 kts 129°
2026-05-07 17:52 24.04910 -74.12205 34830 ft 548 kts 128°
2026-05-07 17:52 23.99738 -74.06181 34832 ft 548 kts 128°
2026-05-07 17:53 23.94506 -74.00096 34831 ft 548 kts 128°
2026-05-07 17:53 23.89299 -73.94038 34827 ft 548 kts 128°
2026-05-07 17:54 23.84106 -73.88005 34829 ft 547 kts 128°
2026-05-07 17:54 23.78904 -73.81974 34830 ft 547 kts 128°
2026-05-07 17:55 23.73694 -73.75953 34832 ft 546 kts 128°
2026-05-07 17:55 23.68532 -73.69981 34831 ft 546 kts 128°
2026-05-07 17:56 23.63314 -73.63953 34832 ft 547 kts 128°
2026-05-07 17:56 23.58085 -73.57918 34831 ft 548 kts 128°
2026-05-07 17:57 23.53715 -73.52879 34831 ft 549 kts 128°
2026-05-07 17:57 23.47613 -73.45850 34831 ft 550 kts 128°
2026-05-07 17:58 23.42390 -73.39871 34831 ft 549 kts 129°
2026-05-07 17:58 23.37148 -73.33845 34829 ft 548 kts 129°
2026-05-07 17:59 23.31924 -73.27852 34831 ft 547 kts 129°
2026-05-07 17:59 23.26682 -73.21857 34830 ft 547 kts 129°
2026-05-07 18:00 23.21453 -73.15865 34832 ft 548 kts 129°
2026-05-07 18:00 23.16220 -73.09892 34832 ft 550 kts 129°
2026-05-07 18:01 23.10955 -73.03886 34831 ft 551 kts 129°
2026-05-07 18:01 23.05668 -72.97866 34831 ft 551 kts 129°
2026-05-07 18:02 22.97811 -72.88870 34829 ft 548 kts 127°
2026-05-07 18:03 22.92931 -72.82559 34831 ft 544 kts 123°
2026-05-07 18:03 22.88301 -72.76174 34827 ft 542 kts 122°
2026-05-07 18:04 22.83647 -72.69742 34829 ft 541 kts 123°
2026-05-07 18:04 22.78953 -72.63368 34831 ft 543 kts 123°
2026-05-07 18:05 22.74234 -72.57035 34832 ft 545 kts 123°
2026-05-07 18:05 22.69443 -72.50634 34831 ft 546 kts 124°
2026-05-07 18:06 22.64671 -72.44268 34832 ft 547 kts 123°
2026-05-07 18:06 22.59919 -72.37930 34831 ft 547 kts 123°
2026-05-07 18:07 22.55130 -72.31546 34831 ft 546 kts 124°
2026-05-07 18:07 22.50384 -72.25210 34831 ft 545 kts 123°
2026-05-07 18:08 22.45607 -72.18838 34830 ft 544 kts 124°
2026-05-07 18:08 22.40848 -72.12500 34831 ft 544 kts 124°
2026-05-07 18:09 22.36101 -72.06192 34832 ft 544 kts 124°
2026-05-07 18:09 22.31350 -71.99889 34830 ft 544 kts 124°
2026-05-07 18:10 22.26587 -71.93558 34832 ft 545 kts 124°
2026-05-07 18:10 22.21810 -71.87238 34830 ft 545 kts 124°
2026-05-07 18:11 22.17039 -71.80936 34831 ft 545 kts 124°
2026-05-07 18:11 22.12250 -71.74611 34832 ft 546 kts 124°
2026-05-07 18:12 22.07452 -71.68264 34830 ft 546 kts 124°
2026-05-07 18:12 22.02660 -71.61940 34832 ft 547 kts 124°
2026-05-07 18:13 21.97856 -71.55620 34831 ft 547 kts 124°
2026-05-07 18:13 21.93040 -71.49287 34832 ft 547 kts 124°
2026-05-07 18:14 21.88251 -71.42998 34827 ft 547 kts 124°
2026-05-07 18:14 21.83441 -71.36684 34829 ft 546 kts 124°
2026-05-07 18:15 21.78638 -71.30392 34830 ft 544 kts 124°
2026-05-07 18:15 21.73865 -71.24141 34831 ft 543 kts 124°
2026-05-07 18:16 21.69095 -71.17896 34831 ft 544 kts 124°
2026-05-07 18:16 21.64300 -71.11628 34831 ft 546 kts 124°
2026-05-07 18:17 21.59421 -71.05320 34831 ft 549 kts 127°
2026-05-07 18:17 21.53841 -70.99771 34831 ft 557 kts 139°
2026-05-07 18:18 21.47330 -70.95181 34832 ft 561 kts 147°
2026-05-07 18:18 21.40643 -70.90981 34830 ft 560 kts 147°
2026-05-07 18:19 21.34065 -70.86633 34831 ft 559 kts 145°
2026-05-07 18:19 21.27533 -70.82075 34831 ft 559 kts 144°
2026-05-07 18:20 21.21119 -70.77499 34831 ft 559 kts 143°
2026-05-07 18:20 21.14662 -70.72930 34830 ft 558 kts 144°
2026-05-07 18:21 21.08187 -70.68368 34830 ft 558 kts 144°
2026-05-07 18:21 21.01722 -70.63851 34830 ft 558 kts 144°
2026-05-07 18:22 20.95238 -70.59343 34831 ft 558 kts 144°
2026-05-07 18:22 20.88748 -70.54838 34827 ft 558 kts 144°
2026-05-07 18:23 20.82247 -70.50304 34829 ft 556 kts 144°
2026-05-07 18:23 20.75789 -70.45821 34830 ft 555 kts 144°
2026-05-07 18:24 20.69359 -70.41347 34830 ft 555 kts 144°
2026-05-07 18:24 20.62922 -70.36867 34832 ft 557 kts 144°
2026-05-07 18:25 20.56441 -70.32388 34830 ft 558 kts 144°
2026-05-07 18:25 20.49924 -70.27882 34831 ft 560 kts 144°
2026-05-07 18:26 20.43438 -70.23391 34831 ft 560 kts 144°
2026-05-07 18:26 20.36910 -70.18881 34830 ft 559 kts 144°
2026-05-07 18:27 20.30439 -70.14410 34831 ft 558 kts 144°
2026-05-07 18:27 20.23940 -70.09933 34831 ft 557 kts 144°
2026-05-07 18:28 20.17433 -70.05552 34831 ft 558 kts 148°
2026-05-07 18:28 20.10531 -70.01798 34830 ft 559 kts 154°
2026-05-07 18:29 20.03401 -69.98592 34831 ft 559 kts 157°
2026-05-07 18:29 19.96240 -69.95458 34832 ft 559 kts 156°
2026-05-07 18:30 19.89084 -69.92211 34827 ft 559 kts 155°
2026-05-07 18:30 19.82001 -69.88869 34828 ft 558 kts 154°
2026-05-07 18:31 19.75289 -69.84890 34831 ft 555 kts 142°
2026-05-07 18:31 19.69368 -69.79742 34833 ft 551 kts 133°
2026-05-07 18:32 19.63896 -69.74123 34832 ft 553 kts 132°
2026-05-07 18:32 19.62877 -69.73095 34832 ft 553 kts 132°
2026-05-07 18:50 19.57396 -69.67861 34692 ft 559 kts 135°
2026-05-07 18:50 19.54422 -69.65189 34203 ft 562 kts 136°
2026-05-07 18:51 19.51402 -69.62547 33589 ft 562 kts 137°
2026-05-07 18:51 19.48434 -69.59977 32971 ft 558 kts 137°
2026-05-07 18:51 19.45428 -69.57381 32295 ft 554 kts 137°
2026-05-07 18:51 19.42478 -69.54835 31626 ft 550 kts 138°
2026-05-07 18:52 19.39526 -69.52277 30952 ft 546 kts 138°
2026-05-07 18:52 19.36612 -69.49736 30279 ft 542 kts 138°
2026-05-07 18:52 19.33739 -69.47224 29610 ft 538 kts 138°
2026-05-07 18:52 19.30882 -69.44722 28940 ft 535 kts 138°
2026-05-07 18:53 19.28058 -69.42250 28274 ft 531 kts 138°
2026-05-07 18:53 19.25238 -69.39778 27603 ft 528 kts 139°
2026-05-07 18:53 19.22420 -69.37309 26929 ft 524 kts 139°
2026-05-07 18:53 19.19613 -69.34853 26253 ft 521 kts 139°
2026-05-07 18:54 19.16853 -69.32440 25621 ft 516 kts 139°
2026-05-07 18:54 19.14126 -69.30061 25028 ft 511 kts 139°
2026-05-07 18:54 19.11402 -69.27688 24430 ft 506 kts 140°
2026-05-07 18:54 19.08717 -69.25349 23846 ft 500 kts 140°
2026-05-07 18:55 19.06047 -69.23025 23323 ft 494 kts 140°
2026-05-07 18:55 19.03413 -69.20732 22798 ft 488 kts 140°
2026-05-07 18:55 19.00829 -69.18481 22276 ft 482 kts 140°
2026-05-07 18:55 18.98348 -69.16193 21752 ft 475 kts 134°
2026-05-07 18:56 18.96245 -69.13535 21224 ft 467 kts 123°
2026-05-07 18:56 18.94512 -69.10674 20698 ft 460 kts 117°
2026-05-07 18:56 18.92970 -69.07738 20172 ft 455 kts 115°
2026-05-07 18:56 18.91533 -69.04810 19621 ft 451 kts 114°
2026-05-07 18:57 18.90141 -69.01891 19026 ft 448 kts 114°
2026-05-07 18:57 18.88753 -68.98968 18411 ft 442 kts 114°
2026-05-07 18:57 18.87387 -68.96131 17756 ft 426 kts 115°
2026-05-07 18:57 18.86054 -68.93415 17106 ft 410 kts 115°
2026-05-07 18:58 18.84746 -68.90802 16454 ft 395 kts 116°
2026-05-07 18:58 18.83463 -68.88296 15801 ft 382 kts 118°
2026-05-07 18:58 18.82107 -68.85982 15157 ft 370 kts 122°
2026-05-07 18:58 18.80702 -68.83751 14502 ft 359 kts 123°
2026-05-07 18:59 18.79296 -68.81632 13851 ft 348 kts 125°
2026-05-07 18:59 18.77866 -68.79630 13201 ft 339 kts 127°
2026-05-07 18:59 18.76450 -68.77685 12549 ft 330 kts 127°
2026-05-07 18:59 18.75109 -68.75786 11905 ft 323 kts 126°
2026-05-07 19:00 18.73806 -68.73879 11252 ft 316 kts 126°
2026-05-07 19:00 18.72559 -68.72019 10607 ft 311 kts 126°
2026-05-07 19:00 18.71335 -68.70170 9957 ft 306 kts 125°
2026-05-07 19:00 18.70136 -68.68359 9311 ft 301 kts 126°
2026-05-07 19:01 18.69007 -68.66518 8662 ft 298 kts 124°
2026-05-07 19:01 18.67959 -68.64666 8015 ft 295 kts 120°
2026-05-07 19:01 18.66963 -68.62799 7369 ft 291 kts 121°
2026-05-07 19:01 18.66008 -68.60953 6724 ft 288 kts 121°
2026-05-07 19:02 18.65027 -68.59116 6069 ft 285 kts 122°
2026-05-07 19:02 18.63772 -68.57547 5420 ft 279 kts 138°
2026-05-07 19:02 18.62252 -68.56401 4768 ft 267 kts 163°
2026-05-07 19:02 18.60494 -68.56185 4107 ft 258 kts 194°
2026-05-07 19:03 18.58905 -68.56994 3786 ft 247 kts 219°
2026-05-07 19:03 18.57655 -68.58138 3742 ft 236 kts 229°
2026-05-07 19:03 18.56495 -68.59322 3613 ft 227 kts 225°
2026-05-07 19:03 18.55409 -68.60497 3476 ft 221 kts 227°
2026-05-07 19:04 18.54342 -68.61669 3263 ft 217 kts 220°
2026-05-07 19:04 18.52973 -68.62234 3044 ft 221 kts 184°
2026-05-07 19:04 18.51488 -68.61744 2833 ft 229 kts 147°
2026-05-07 19:04 18.50543 -68.60408 2779 ft 234 kts 111°
2026-05-07 19:05 18.50510 -68.58695 2740 ft 244 kts 77°
2026-05-07 19:05 18.51315 -68.57125 2721 ft 242 kts 55°
2026-05-07 19:05 18.52256 -68.55640 2671 ft 245 kts 50°
2026-05-07 19:05 18.53151 -68.54148 2419 ft 241 kts 67°
2026-05-07 19:06 18.53772 -68.52509 2168 ft 238 kts 74°
2026-05-07 19:06 18.54625 -68.49170 1671 ft 235 kts 82°
2026-05-07 19:06 18.54871 -68.47481 1495 ft 228 kts 87°
2026-05-07 19:07 18.55176 -68.45882 1378 ft 223 kts 74°
2026-05-07 19:07 18.55759 -68.44394 1241 ft 219 kts 68°
2026-05-07 19:07 18.56241 -68.42841 921 ft 215 kts 85°
2026-05-07 19:07 18.56350 -68.41362 783 ft 193 kts 92°
2026-05-07 19:08 18.56438 -68.40018 536 ft 168 kts 89°
2026-05-07 19:08 18.56532 -68.38892 293 ft 137 kts 89°
2026-05-07 19:08 18.56604 -68.37900 66 ft 142 kts 85°
2026-05-07 19:08 18.56686 -68.36970 48 ft 111 kts 85°
2026-05-07 19:09 18.56740 -68.36301 42 ft 73 kts 86°
2026-05-07 19:09 18.56774 -68.35918 39 ft 34 kts 86°
2026-05-07 19:09 18.56756 -68.35796 40 ft 11 kts 149°
2026-05-07 19:09 18.56666 -68.35780 41 ft 15 kts 175°
2026-05-07 19:10 18.56559 -68.35773 43 ft 12 kts 194°
2026-05-07 19:10 18.56519 -68.35856 41 ft 16 kts 266°
2026-05-07 19:10 18.56510 -68.35998 41 ft 21 kts 266°
2026-05-07 19:10 18.56497 -68.36159 41 ft 19 kts 263°
2026-05-07 19:11 18.56526 -68.36198 41 ft 8 kts 353°
2026-05-07 19:11 18.56551 -68.36201 41 ft 0 kts 354°